Home   Weather   47°38'N, 10°49'E   Past weeks
Flag for Germany

Past Weather in 47°38'N, 10°49'E, Germany — Yesterday and Last 2 Weeks

Now
37 °F

Clear.


Feels Like: 35 °F
Forecast: 46 / 29 °F
Wind: 3 mph from South

Location: Innsbruck-Flughafen

Current Time: Feb 19, 2019 at 8:18:36 pm

Latest Report: Feb 19, 2019 at 7:20 pm


Visibility: 10 mi

Pressure: 30.15 "Hg

Humidity: 65%

Dew Point: 27 °F

Location of 47°38'N, 10°49'ELocation

Past Weather in 47°38'N, 10°49'E — Graph

°F

47°38'N, 10°49'E Temperature Yesterday

Maximum temperature yesterday: 54 °F (at 1:50 pm)
Minimum temperature yesterday: 23 °F (at 7:20 am)
Average temperature yesterday: 35 °F

High & Low Weather Summary for the Past Weeks

 TemperatureHumidityPressure
High54 °F (Feb 17, 2:50 pm)100% (Feb 5, 2:20 am)30.69 "Hg (Feb 5, 2:20 am)
Low16 °F (Feb 6, 6:50 am)28% (Feb 17, 2:50 pm)29.53 "Hg (Feb 10, 6:50 pm)
Average33 °F76%30.28 "Hg
* Reported Feb 4 6:20 pm — Feb 19 6:50 pm, 47°38'N, 10°49'E. Weather by CustomWeather, © 2019

Note: Actual official high and low records may vary slightly from our data, if they occured in-between our weather recording intervals... More about our weather records

Advertising

47°38'N, 10°49'E Weather History for the Previous 24 Hours

Scroll right to see more
 ConditionsComfort  
Time TempWeatherWind HumidityBarometerVisibility
6:50 pm
Tue, Feb 19
39 °FClear.2 mph61%30.15 "Hg10 mi
6:20 pm41 °FClear.1 mph57%30.12 "Hg10 mi
5:50 pm45 °FClear.1 mph53%30.12 "Hg10 mi
5:20 pm48 °FSunny.5 mph43%30.12 "Hg10 mi
4:50 pm48 °FSunny.6 mph43%30.12 "Hg10 mi
4:20 pm52 °FSunny.2 mph38%30.12 "Hg10 mi
3:50 pm54 °FSunny.2 mph33%30.12 "Hg10 mi
3:20 pm54 °FPassing clouds.3 mph33%30.12 "HgN/A
2:50 pm54 °FSunny.2 mph33%30.12 "Hg10 mi
2:20 pm54 °FSunny.2 mph33%30.12 "Hg10 mi
1:50 pm52 °FSunny.1 mph38%30.12 "Hg10 mi
12:50 pm50 °FSunny.1 mph40%30.15 "Hg10 mi
12:20 pm48 °FSunny.1 mph43%30.18 "Hg10 mi
11:50 am45 °FPassing clouds.5 mph49%30.18 "HgN/A
11:20 am43 °FPassing clouds.3 mph53%30.21 "HgN/A
10:50 am41 °FPassing clouds.5 mph61%30.21 "HgN/A
10:20 am37 °FPassing clouds.3 mph65%30.21 "HgN/A
9:50 am36 °FSunny.5 mph70%30.21 "Hg10 mi
8:50 am32 °FSunny.1 mph87%30.21 "Hg10 mi
8:20 am28 °FSunny.1 mph86%30.21 "Hg10 mi
7:50 am25 °FSunny.1 mph93%30.21 "Hg10 mi
7:20 am25 °FSunny.1 mph93%30.21 "Hg10 mi
6:50 am25 °FClear.1 mph93%30.18 "Hg10 mi
6:20 am27 °FClear.2 mph86%30.18 "Hg10 mi
5:50 am25 °FClear.1 mph93%30.18 "Hg10 mi
5:20 am27 °FClear.1 mph86%30.18 "HgN/A
4:50 am25 °FClear.2 mph93%30.15 "HgN/A
4:20 am27 °FClear.1 mph86%30.15 "HgN/A
3:50 am27 °FClear.1 mph86%30.15 "HgN/A
3:20 am28 °FClear.2 mph80%30.15 "HgN/A
2:50 am27 °FClear.1 mph86%30.15 "HgN/A
2:20 am28 °FClear.2 mph86%30.15 "HgN/A
1:50 am28 °FClear.1 mph80%30.12 "HgN/A
1:20 am28 °FClear.1 mph80%30.12 "HgN/A
12:50 am28 °FClear.1 mph86%30.12 "HgN/A
12:20 am28 °FClear.1 mph80%30.12 "HgN/A
11:50 pm
Mon, Feb 18
30 °FClear.2 mph80%30.12 "HgN/A
11:20 pm30 °FClear.2 mph80%30.12 "HgN/A
10:50 pm32 °FClear.1 mph75%30.12 "Hg10 mi
10:20 pm32 °FClear.2 mph75%30.12 "Hg10 mi
9:50 pm34 °FClear.1 mph70%30.12 "Hg10 mi
9:20 pm32 °FClear.2 mph75%30.12 "Hg10 mi
8:50 pm34 °FClear.1 mph70%30.12 "Hg10 mi
8:20 pm36 °FClear.1 mph70%30.12 "Hg10 mi
Weather by CustomWeather, © 2019

See weather overview